Regional Weather Roundup
Issued by NWS

Home | Current Version | Previous Version | Graphics & Text | Print | Product List | Glossary On
Versions: 1 2 3 4 5 6 7 8 9 10 11 12 13 14 15 16 17 18 19 20 21 22 23 24 25 26 27 28 29 30 31 32 33 34 35 36 37 38 39 40 41 42 43 44 45 46 47 48 49 50
000
ASUS45 KTFX 240710
RWRMT
MONTANA REGIONAL WEATHER ROUNDUP
NATIONAL WEATHER SERVICE GREAT FALLS MT
1200 AM MST FRI FEB 24 2017

NOTE: "FAIR" INDICATES FEW OR NO CLOUDS BELOW 12000 FEET WITH NO
SIGNIFICANT WEATHER AND/OR OBSTRUCTIONS TO VISIBILITY.

MTZ001>007-043-240800-
WEST OF THE DIVIDE

CITY           SKY/WX    TMP DP  RH WIND       PRES   REMARKS
KALISPELL      CLEAR     17  14  88 CALM      29.98R
MISSOULA       CLOUDY    29  20  69 NW9       29.98R WCI  20
BUTTE          LGT SNOW  20  15  81 CALM      29.85S
MULLAN PASS    CLOUDY    15  14  95 N5        29.87S FOG
ANACONDA         N/A     21  14  73 CALM      29.89R
DEER LODGE       N/A     21  16  79 NW6       29.92S WCI  14
EUREKA           N/A     18  12  79 CALM      30.01R
HAMILTON         N/A     28  25  86 W6        29.94S WCI  22
LIBBY            N/A     19  18  93 CALM      30.02S
PLAINS           N/A     17  10  74 CALM      30.03R
RONAN            N/A     24  20  85 CALM      30.01R
$$

MTZ008-052>055-240800-
SOUTHWEST MONTANA

CITY           SKY/WX    TMP DP  RH WIND       PRES   REMARKS
BOZEMAN        CLOUDY    25  16  68 N3        29.90R
DILLON         CLOUDY    24  16  71 NE12      29.83R WCI  13
W YELLOWSTONE  CLOUDY    16  14  93 CALM      29.78S
ENNIS          CLOUDY    19  16  86 N10       29.88S FOG     WCI   8
THREE FORKS      N/A     24 -12  20 CALM      29.90S
TWIN BRIDGES     N/A     23  15  71 N15       29.85R WCI  10
$$

MTZ009-010-012-014-046-048-049-054-240800-
EAST SLOPES AND CENTRAL MONTANA

CITY           SKY/WX    TMP DP  RH WIND       PRES   REMARKS
CUT BANK       PTCLDY    19  17  92 SE5       29.95S
GREAT FALLS    CLOUDY    24  22  91 NE6       29.95F WCI  17
MALMSTROM AFB  CLOUDY    25  24  95 N5        29.97S
HELENA         CLOUDY    27  22  81 W6        29.93S WCI  20
AUGUSTA        FLURRIES  20  19  98 CALM      29.92F
BOWMANS CRNR   CLOUDY    21  20  98 NE3       29.91S
CHOTEAU          N/A     19  19 100 CALM      29.97S
CONRAD           N/A     24  23  96 NE6       29.98F WCI  17
POWER          MOCLDY    23  22  95 E9        29.94F WCI  13
RAYNESFORD       N/A     20  18  92 SE10      29.94S WCI   9
ULM            FLURRIES  25  24  96 MISG      29.96S
$$

MTZ011-013-016-021-045-047-050-051-240800-
NORTH CENTRAL MONTANA

CITY           SKY/WX    TMP DP  RH WIND       PRES   REMARKS
HAVRE          CLOUDY    20  17  88 CALM      30.03S
LEWISTOWN      CLOUDY    22  17  81 SE7       29.95S WCI  13
N BAR RANCH    MIX PCPN  21  19  93 SE10      29.97F WCI  10
CHINOOK          N/A     28  27  93 E7        30.05S WCI  21
DENTON         MOCLDY    22  18  87 SE12      29.94F WCI  10
FORT BENTON      N/A     25  21  86 MISG      30.01S
GEYSER         MOCLDY    24  18  77 SE10      29.93F WCI  13
GRASS RANGE    FLURRIES  24  22  93 SE8       29.94F WCI  15
JUDITH GAP     FLURRIES  20  17  88 S12       29.92F WCI   8
ROY            FLURRIES  25  25  99 MISG      29.98S
STANFORD       MOCLDY    22  17  83 SE9       29.92F WCI  11
WINIFRED       MOCLDY    21  20  98 E7        29.97S WCI  12
$$

MTZ017>020-022>027-061-062-240800-
NORTHEAST MONTANA

CITY           SKY/WX    TMP DP  RH WIND       PRES   REMARKS
GLASGOW        CLOUDY    25  17  72 E13       30.10S WCI  14
JORDAN           N/A     25  22  88 E9        30.06F WCI  15
SIDNEY         CLOUDY    24  18  77 NE5       30.15S
WOLF POINT     CLOUDY    26  18  71 E8        30.14S WCI  18
PLENTYWOOD       N/A     21  16  79 E3        30.13S
POPLAR           N/A     25  18  74 E6        30.15R WCI  18
SCOBEY           N/A     21  10  62 CALM      30.08S
$$

MTZ028>42-056>058-240800-
SOUTHCENTRAL AND SOUTHEAST MONTANA

CITY           SKY/WX    TMP DP  RH WIND       PRES   REMARKS
BAKER          CLOUDY    21  16  81 E12       30.07S WCI   9
BILLINGS       LGT SNOW  26  24  92 NE10      29.96F FOG     WCI  16
LIVINGSTON     LGT SNOW  21  17  84 E14       29.90S FOG     WCI   8
MILES CITY     CLOUDY    28  23  81 NE10      30.05F WCI  19
BIG TIMBER     CLOUDY    21  21 100 NE5       29.95F FOG
EKALAKA          N/A     22  18  85 NE7       29.99  WCI  14
FORSYTH          N/A     27  27 100 E7        30.04S WCI  19
HARLOWTON      FLURRIES  22  20  94 E8        29.94F WCI  12
LAUREL           N/A     25  17  71 N3        29.94S
$$

REGIONAL REPORTS...DAKOTAS

CITY           SKY/WX    TMP DP  RH WIND       PRES   REMARKS
WILLISTON      CLEAR      8   5  87 CALM      30.16S
MINOT            N/A     20  15  81 SW8       30.13R WCI  10
DICKINSON      CLOUDY    11   6  81 N6        30.09S WCI   1
BEACH            N/A    N/A N/A N/A MISG        N/A
CROSBY         CLOUDY    25  19  80 W5        30.16S
TIOGA          CLOUDY    18  18 100 SW6       30.14S WCI   9
WATFORD CITY   MOCLDY    10   9  92 CALM      30.15F
BISMARCK       CLEAR     18  12  77 N6        30.16R WCI  10
GRAND FORKS    CLEAR     18  10  71 N3        30.16R
FARGO          PTCLDY    21  12  68 N18       30.11S WCI   6
BUFFALO SD       N/A     21  18  88 NE10      29.98R WCI  10
RAPID CITY     CLOUDY    24  20  84 N10       29.99S WCI  14
$$

REGIONAL REPORTS...WYOMING/IDAHO/WASHINGTON

CITY           SKY/WX    TMP DP  RH WIND       PRES   REMARKS
GILLETTE       CLOUDY    24  20  84 NE5       29.93
SHERIDAN       CLOUDY    23  20  88 MISG      29.95S
BUFFALO WY     LGT SNOW  22  17  81 CALM      29.92S
CODY           CLOUDY    19  14  81 CALM      29.89S
YELLOWSTONE LA   N/A      7   5  91 CALM      29.75R
IDAHO FALLS    CLOUDY    22  21  96 S16G28    29.83R WCI   8
SALMON         CLOUDY    28  18  64 E5        29.86S
BOISE          CLOUDY    30  23  75 NW16      29.98R WCI  19
SPOKANE        PTCLDY    25  18  74 S7        30.06  WCI  17
$$

REGIONAL REPORTS...ALBERTA

CITY           SKY/WX    TMP DP  RH WIND       PRES   REMARKS
EDMONTON       MOCLDY    19  18  93 NE2       30.03S
CALGARY        PTCLDY    18  12  79 E5        29.95S
LETHBRIDGE     CLEAR     19  18  93 W2        29.98S
MEDICINE HAT   FLURRIES  21  18  86 E5        30.04F
WATERTON GATE    N/A     10   7  85 SW6         N/A  WCI   1
CARDSTON         N/A      9   7  92 S1          N/A
MILK RIVER       N/A     23  21  93 S9          N/A  WCI  13
$$

REGIONAL REPORTS...SASKATCHEWAN

CITY           SKY/WX    TMP DP  RH WIND       PRES   REMARKS
SWIFT CURRENT  CLOUDY    19  16  86 S5        30.05F
REGINA         CLOUDY    25  21  86 S6        30.12S WCI  18
SASKATOON      FLURRIES  21  16  79 E7        30.13S WCI  13
CYPRESS HILLS    N/A     18  14  86 S8          N/A  WCI   7
VAL MARIE        N/A     23  19  86 S7          N/A  WCI  15
ROCKGLEN         N/A     18  12  79 E2          N/A
ASSINIBOIA       N/A     21  18  86 S2          N/A
$$



USA.gov is the U.S. government's official web portal to all federal, state and local government web resources and services.